Regional Weather Roundup
Issued by NWS

Home | Current Version | Previous Version | Text Only | Print | Product List | Glossary Off
Versions: 1 2 3 4 5 6 7 8 9 10 11 12 13 14 15 16 17 18 19 20 21 22 23 24 25 26 27 28 29 30 31 32 33 34 35 36 37 38 39 40 41 42 43 44 45 46 47 48 49 50

000
ASUS45 KTFX 211819
RWRMT
MONTANA HOURLY WEATHER ROUNDUP
NATIONAL WEATHER SERVICE GREAT FALLS MT
1219 PM MDT TUE OCT 21 2014

NOTE: "FAIR" INDICATES FEW OR NO CLOUDS BELOW 12000 FEET WITH NO
SIGNIFICANT WEATHER AND/OR OBSTRUCTIONS TO VISIBILITY.

* THESE STATIONS ARE NOT UNDER NWS QUALITY CONTROL. THEY DO NOT
   REPORT WEATHER SUCH AS PRECIPITATION OR FOG.

MTZ001>007-043-211900-
WEST OF THE DIVIDE
CITY           SKY/WX    TMP DP  RH WIND       PRES   REMARKS
KALISPELL      LGT RAIN  50  46  86 CALM      29.81R
MISSOULA       LGT RAIN  48  46  93 NE3       29.88R
BUTTE          RAIN      43  39  86 NW10G21   29.85R VSB 3
MULLAN PASS    FOG       36  36 100 VRB6      29.89R VSB M1/4 WCI  31
* ESSEX        N/A       42  41  96 N/A        N/A
* LINCOLN      N/A       46  41  83 S7G15      N/A
* LOOKOUT PASS N/A       41  40  96 VRB2       N/A
* POLSON       N/A       46  46 100 SE2        N/A
* RONAN APT    CLOUDY    48  46  93 N/A        N/A
* SEELEY LAKE  N/A       45  43  93 SW3        N/A
* THOMP F APT  CLOUDY    38  37  96 S13G24     N/A   WCI  30
$$

MTZ008-052>055-211900-
SOUTHWEST MONTANA
CITY           SKY/WX    TMP DP  RH WIND       PRES   REMARKS
BOZEMAN        PTSUNNY   63  39  41 S17       29.72R
DILLON         LGT RAIN  46  43  89 S21       29.81R
W YELLOWSTONE  LGT RAIN  37  36  96 SW22G30   29.96R WCI  26
* THREE FORKS  PTSUNNY   66  50  56 S25G35     N/A
* BOULDER HILL N/A       54  35  49 S6G11      N/A
* MONIDA PASS  N/A       37  37 100 SE24G31    N/A   WCI  26
* RAYNOLDS PAS N/A       42  26  53 SE20G31    N/A
* WHITEHALL    N/A       57  43  60 S5         N/A
* WISE RIVER   N/A       41  37  86 NW6G43     N/A
$$

MTZ009>010-012-014-046-048-049-054-211900-
EAST SLOPES AND CENTRAL MONTANA
CITY           SKY/WX    TMP DP  RH WIND       PRES   REMARKS
CUT BANK       CLOUDY   N/A N/A N/A N/A       29.73F
GREAT FALLS    LGT RAIN  55  37  51 NW14      29.69R
HELENA         LGT RAIN  55  43  64 W17G23    29.69F
MALMSTROM AFB  LGT RAIN  57  41  55 NW15G20   29.72R
* CONRAD       CLOUDY    48  48 100 W18G24     N/A
* DEARBORN     N/A       60  41  50 N/A        N/A
* EAST GLACIER N/A       44  41  89 NW5G12     N/A
* MONARCH      N/A       54  38  55 S13        N/A
* PENDROY      N/A       45  45 100 NW17G25    N/A
* ROGERS PASS  N/A       45  38  77 SE6G17     N/A
* SAINT MARY   N/A       46  42  86 S6G12      N/A
* SWEET GRASS  N/A       49  49 100 W9         N/A
* WHITE SULPH  N/A       59  44  58 S7G13      N/A
$$

MTZ011-013-016-021-035-040-045-047-050-051-211900-
NORTH CENTRAL MONTANA
CITY           SKY/WX    TMP DP  RH WIND       PRES   REMARKS
HAVRE          PTSUNNY   54  39  57 SW10      29.66R
LEWISTOWN      CLOUDY    66  39  37 S16G31    29.69R
* CHINOOK      PTSUNNY   59  37  44 W15G21    29.64R
* FORT BENTON  CLOUDY    52  45  77 CALM      29.68R
* CHESTER      N/A       55  40  57 NW11G18    N/A
* DENTON       N/A       64  44  48 W6G12      N/A
* GEYSER       N/A       61  40  46 SE8        N/A
* JUDITH GAP   N/A       56  45  67 SE5        N/A
* LOMA         N/A       50  42  74 E2         N/A
$$

MTZ017>020-022>027-061-062-211900-
NORTHEAST MONTANA
CITY           SKY/WX    TMP DP  RH WIND       PRES   REMARKS
GLASGOW        PTCLDY    64  45  50 E14       29.61F
GLENDIVE       SUNNY     64  45  50 S10       29.66F
JORDAN         SUNNY     75  37  25 VRB6      29.62F
SIDNEY         SUNNY     63  45  52 CALM      29.65F
WOLF POINT     SUNNY     63  46  54 SE5       29.63F
* BEAVER HILL  N/A       70  38  31 S10        N/A
* CIRCLE       N/A       70  48  46 S3         N/A
* LINDSAY DVD  N/A       66  45  47 S2G8       N/A
* NAVAJO       N/A       64  45  50 E4         N/A
$$

MTZ028>042-056>058-211900-
SOUTHCENTRAL AND SOUTHEAST MONTANA
CITY           SKY/WX    TMP DP  RH WIND       PRES   REMARKS
BAKER          SUNNY     73  39  29 S15       29.67F
BILLINGS       PTSUNNY   64  34  33 SW12      29.70S
LIVINGSTON     CLOUDY    64  39  40 SW17G23   29.73F
MILES CITY     SUNNY     61  43  52 CALM      29.66F
* LAUREL APT   PTSUNNY   70  34  27 SW11G18    N/A
* ROUNDUP APT  PTCLDY    66  36  33 S8         N/A
* ALZADA       N/A       75  41  30 S14        N/A
* HYSHAM       N/A       67  33  28 W6         N/A
* LAME DEER    N/A       76  36  23 S6G12      N/A
* REED POINT   N/A       46  37  71 W5         N/A
* ROSCOE HILL  N/A       66  30  26 S11G21     N/A
$$

REGIONAL REPORTS...DAKOTAS
CITY           SKY/WX    TMP DP  RH WIND       PRES   REMARKS
WILLISTON      SUNNY     63  41  45 SE9       29.67F
DICKINSON      SUNNY     68  45  44 SE13      29.68F
BEACH          N/A       66  45  47 SE16      29.67F
CROSBY         SUNNY     66  41  40 SE10      29.67F
TIOGA          SUNNY     64  41  43 SE10      29.71F
BISMARCK       SUNNY     72  43  35 S15       29.75F
GRAND FORKS    SUNNY     61  43  52 S23G33    29.94F
FARGO          LGT RAIN  63  43  48 SE23G37   29.96F
BUFFALO SD     SUNNY     77  43  30 S13       29.65F
RAPID CITY     SUNNY     75  46  36 S16       29.80F
$$

REGIONAL REPORTS...WYOMING/IDAHO/WASHINGTON
CITY           SKY/WX    TMP DP  RH WIND       PRES   REMARKS
GILLETTE       SUNNY     73  37  27 SW22G30   29.78F
SHERIDAN       SUNNY     77  36  23 CALM      29.72F
CODY           CLOUDY   N/A N/A N/A W8G22     29.82R
YELLOWSTONE LA CLOUDY    39  36  89 VRB7      30.01R WCI  34
SALMON         CLOUDY    45  39  80 W5        29.93R
MULLAN PASS    FOG       36  36 100 VRB6      29.89S VSB M1/4 WCI  31
SAND POINT     CLOUDY    50  45  83 SW8       29.89R
SPOKANE        PTSUNNY   48  45  89 SW12      29.91R
$$

REGIONAL REPORTS...ALBERTA
CITY           SKY/WX    TMP DP  RH WIND       PRES   REMARKS
CALGARY        CLOUDY    55  36  49 N5        29.66S
LETHBRIDGE     LGT RAIN  55  41  59 W12       29.69R
MEDICINE HAT   PTSUNNY   68  39  35 W22G32    29.60R
EDMONTON       PTSUNNY   52  41  66 W9        29.65R
WATERTON GATE  N/A       52  34  50 SW16G24    N/A
CARDSTON       N/A       54  41  62 SW3        N/A
MILK RIVER     N/A       50  48  93 W8         N/A
$$

REGIONAL REPORTS...SASKATCHEWAN
CITY           SKY/WX    TMP DP  RH WIND       PRES   REMARKS
SWIFT CURRENT  SUNNY     66  37  34 S8        29.56F
MOOSE JAW      SUNNY     63  46  54 SE7       29.61F
REGINA         SUNNY     61  45  56 SE16      29.64F
VAL MARIE      N/A       68  41  38 S9         N/A
ASSINIBOIA     N/A       70  39  32 SE9        N/A

$$




USA.gov is the U.S. government's official web portal to all federal, state and local government web resources and services.